Meteopurmerend
purmerend
Purmerend - Baaienwijk



My webcam  My webcam


waarschuwing voor Onweer Meer informatie blitzortung!


Regen radar Meer informatie rain snow radar


Bezoek onze andere website:

CandyAppleRed WebdesignWebdesign Purmerend Candy Apple Red

MeteopurmerendBlog

Template documentation
and downloads



Onweer van: 26-07-2021 13:00 tot: 21:00 waarschuwing voor: Onweer niveau: Geel info button
Enkele onweersbuien, lokaal met hagel en veel neerslag in korte tijd.Kans op blikseminslag, hagel en veel neerslag in korte tijd.Verkeer en buitenactiviteiten kunnen hinder ondervinden.Mijd open water en open gebied, schuil niet onder bomen.Volg weerberichten en waarschuwingen.

15 daagse weersverwachting 0.000N 0.000E

  • Overzicht
  • Per uur
  • 15 dagen
  • Extra
  • Vergelijk
  • Kaarten
  • Dagkaart
  • Meer »
  • Info
  • Statistieken
  • Directe link
    Temp 6h Neerslag Wind  
 01:55     19:14    Daglengte: 17:19 Vandaag
18:00
25°
 
2
 01:57     19:12    Daglengte: 17:15 Morgen
00:00
17°
 
2
06:00
23°
 
2
12:00
30°
 
4
18:00
25°
 
3
 02:00     19:09    Daglengte: 17:09 Woensdag 28 Jul
00:00
20°
 
2
06:00
22°
 
3
12:00
21°
5.3 mm
4
18:00
20°
13.1 mm
3
warningclass
 02:02     19:07    Daglengte: 17:05 Donderdag 29 Jul
00:00
18°
16.8 mm
3
06:00
19°
16.6 mm
3
12:00
21°
22.8 mm
5
Locatie info
Region:
Latitude: 60.4202°N
Longitude: 23.2372°E
0 masl
Temp/Neerslag /Baro Onweer/Dauwpunt
    Temp Baro 1h Neerslag Dauwpunt Wind UV Bewolking  
 01:55     19:14    Daglengte: 17:19 Vandaag
14:00
29°
Voelt als: 27.9°
1019.1 hPa   11.6°
3
Windvlaag: 2.7 m/s
17%
15:00
28°
Voelt als: 27.7°
1018.9 hPa   11.5°
3
Windvlaag: 3.9 m/s
12%
16:00
28°
Voelt als: 27.3°
1018.7 hPa   11.0°
3
Windvlaag: 3.7 m/s
8%
17:00
27°
Voelt als: 26.7°
1018.7 hPa   11.6°
2
Windvlaag: 3.5 m/s
3%
18:00
25°
1018.8 hPa   14.2°
2
Windvlaag: 3 m/s
1%
19:00
22°
1018.9 hPa   15.9°
1
Windvlaag: 2.1 m/s
6%
20:00
20°
1019.1 hPa   15.9°
1
Windvlaag: 1.4 m/s
7%
21:00
19°
1019.3 hPa   15.5°
1
Windvlaag: 0.7 m/s
7%
22:00
18°
1019.3 hPa   15.6°
1
Windvlaag: 0.4 m/s
8%
23:00
17°
1019.2 hPa   15.1°
1
Windvlaag: 0.7 m/s
9%
 01:57     19:12    Daglengte: 17:15 Morgen
00:00
17°
1019.0 hPa   14.8°
2
Windvlaag: 1.3 m/s
21%
01:00
16°
1018.7 hPa   14.9°
2
Windvlaag: 1.5 m/s
31%
02:00
16°
1018.6 hPa   15.2°
2
Windvlaag: 1.7 m/s
14%
03:00
17°
1018.3 hPa   15.5°
2
Windvlaag: 1.7 m/s
38%
04:00
19°
1018.1 hPa   15.7°
2
Windvlaag: 1.3 m/s
45%
05:00
21°
1017.9 hPa   15.1°
2
Windvlaag: 1.7 m/s
51%
06:00
23°
1017.7 hPa   14.5°
2
Windvlaag: 1.5 m/s
54%
07:00
25°
1017.5 hPa   14.3°
3
Windvlaag: 2 m/s
57%
08:00
27°
1017.3 hPa   13.5°
3
Windvlaag: 1.7 m/s
54%
09:00
28°
Voelt als: 27.5°
1016.9 hPa   12.3°
4
Windvlaag: 2.5 m/s
59%
10:00
29°
Voelt als: 28.1°
1016.4 hPa   11.7°
4
Windvlaag: 2.9 m/s
50%
11:00
30°
Voelt als: 28.6°
1015.9 hPa   11.1°
4
Windvlaag: 3.8 m/s
24%
12:00
30°
Voelt als: 28.9°
1015.4 hPa   11.0°
4
Windvlaag: 4.2 m/s
19%
13:00
30°
Voelt als: 28.8°
1014.8 hPa   10.7°
4
Windvlaag: 4.1 m/s
14%
14:00
30°
Voelt als: 28.6°
1014.3 hPa   10.5°
4
Windvlaag: 4.1 m/s
14%
15:00
29°
Voelt als: 28.1°
1014.0 hPa   10.3°
4
Windvlaag: 4 m/s
16%
16:00
28°
Voelt als: 27.5°
1013.6 hPa   10.5°
4
Windvlaag: 3.6 m/s
15%
17:00
27°
Voelt als: 26.8°
1013.3 hPa   10.9°
4
Windvlaag: 2.7 m/s
13%
18:00
25°
1013.0 hPa   13.1°
3
Windvlaag: 2.6 m/s
19%
19:00
24°
1012.7 hPa   16.0°
3
Windvlaag: 2.8 m/s
32%
20:00
23°
1012.5 hPa   17.1°
3
Windvlaag: 2.6 m/s
29%
21:00
22°
1012.3 hPa   17.7°
3
Windvlaag: 3 m/s
16%
22:00
21°
1011.9 hPa   17.3°
3
Windvlaag: 4.5 m/s
19%
23:00
20°
1011.2 hPa   16.7°
2
Windvlaag: 2.7 m/s
19%
 02:00     19:09    Daglengte: 17:09 Woensdag 28 Jul
00:00
20°
1010.5 hPa   15.8°
2
Windvlaag: 2.3 m/s
24%
01:00
19°
1010.1 hPa   15.1°
2
Windvlaag: 2.4 m/s
22%
02:00
19°
1009.7 hPa   13.5°
2
Windvlaag: 2.3 m/s
18%
03:00
19°
1009.1 hPa   13.4°
2
Windvlaag: 1.9 m/s
48%
04:00
19°
1008.8 hPa   14.7°
2
Windvlaag: 0.5 m/s
84%
05:00
20°
1008.3 hPa
17%
14.5°
3
Windvlaag: 1 m/s
81%
06:00
22°
1007.8 hPa
20%
14.8°
3
Windvlaag: 0 m/s
85%
07:00
23°
1007.3 hPa
45%
14.0°
3
Windvlaag: -1 m/s
85%
08:00
23°
1007.3 hPa 0.3 mm
78%
12.5°
3
Windvlaag: -0.3 m/s
86%
09:00
21°
1006.6 hPa 1.3 mm
100%
18.8°
4
Windvlaag: -1.6 m/s
100%
10:00
21°
1006.2 hPa 1.0 mm
100%
15.6°
4
Windvlaag: -2.2 m/s
99% warningclass
11:00
21°
1005.8 hPa 1.4 mm
100%
13.8°
4
Windvlaag: -2.1 m/s
100% warningclass
12:00
21°
1005.5 hPa 1.4 mm
100%
15.1°
4
Windvlaag: -1.8 m/s
100%
13:00
20°
1005.4 hPa 1.3 mm
100%
17.9°
4
Windvlaag: -1.7 m/s
98%
14:00
21°
1005.2 hPa 1.4 mm
100%
16.7°
4
Windvlaag: -2 m/s
99% warningclass
15:00
20°
1005.0 hPa 1.7 mm
99%
19.6°
3
Windvlaag: -1 m/s
99% warningclass
16:00
21°
1004.7 hPa 1.6 mm
97%
19.3°
2
Windvlaag: -1 m/s
84% warningclass
17:00
21°
1004.3 hPa 3.1 mm
51%
18.7°
3
Windvlaag: 1.9 m/s
84% warningclass
18:00
20°
1004.0 hPa 4.2 mm
25%
18.4°
3
Windvlaag: 1.5 m/s
85% warningclass
19:00
20°
1003.9 hPa 3.4 mm
30%
18.7°
3
Windvlaag: 2.8 m/s
98%
20:00
19°
1004.0 hPa
23%
18.6°
3
Windvlaag: 2.9 m/s
88%
21:00
19°
1003.9 hPa 3.2 mm
24%
18.6°
3
Windvlaag: 2.9 m/s
85%
22:00
18°
1003.6 hPa 3.2 mm
21%
18.3°
3
Windvlaag: 3.6 m/s
86%
23:00
18°
1003.1 hPa 3.5 mm
21%
18.2°
3
Windvlaag: 3.4 m/s
77%
 02:02     19:07    Daglengte: 17:05 Donderdag 29 Jul
00:00
18°
1002.9 hPa 3.4 mm
22%
17.9°
3
Windvlaag: 3.4 m/s
74%
01:00
18°
1002.4 hPa 3.4 mm
29%
17.8°
3
Windvlaag: 2.8 m/s
87%
02:00
18°
1001.9 hPa 3.3 mm
75%
17.6°
3
Windvlaag: 3.7 m/s
76%
03:00
18°
1001.6 hPa
40%
18.0°
3
Windvlaag: 3.3 m/s
95%
04:00
18°
1001.3 hPa 3.3 mm
54%
17.7°
3
Windvlaag: 2.8 m/s
94%
05:00
19°
1001.0 hPa 3.2 mm
100%
17.1°
3
Windvlaag: 2.2 m/s
91%
06:00
19°
1000.8 hPa 3.3 mm
100%
16.3°
3
Windvlaag: 1.9 m/s
98%
07:00
20°
1000.0 hPa 3.3 mm
100%
15.6°
4
Windvlaag: 5.1 m/s
76%
08:00
20°
999.8 hPa 3.7 mm
100%
15.8°
4
Windvlaag: 5.3 m/s
100%
09:00
21°
999.5 hPa 3.9 mm
100%
15.0°
4
Windvlaag: 6.4 m/s
87%
10:00
21°
999.0 hPa 3.9 mm
100%
13.8°
5
Windvlaag: 7.2 m/s
92%
11:00
22°
998.6 hPa 3.9 mm
100%
12.7°
5
Windvlaag: 7.5 m/s
66%
Temp/Neerslag /Baro Onweer/Dauwpunt
    Temp Baro Neerslag Dauwpunt Wind Bewolking  
 01:55     19:14    Daglengte: 17:19 Vandaag
15:00
28°
Voelt als: 27.7°
1018.9 hPa   11.5°
3
12%
18:00
25°
1018.8 hPa   14.2°
2
1%
21:00
19°
1019.3 hPa   15.5°
1
7%
 01:57     19:12    Daglengte: 17:15 Morgen
00:00
17°
1019.0 hPa   14.8°
2
21%
03:00
17°
1018.3 hPa   15.5°
2
38%
06:00
23°
1017.7 hPa   14.5°
2
54%
09:00
28°
Voelt als: 27.5°
1016.9 hPa   12.3°
4
59%
12:00
30°
Voelt als: 28.9°
1015.4 hPa   11.0°
4
19%
15:00
29°
Voelt als: 28.1°
1014.0 hPa   10.3°
4
16%
18:00
25°
1013.0 hPa   13.1°
3
19%
21:00
22°
1012.3 hPa   17.7°
3
16%
 02:00     19:09    Daglengte: 17:09 Woensdag 28 Jul
00:00
20°
1010.5 hPa   15.8°
2
24%
03:00
19°
1009.1 hPa   13.4°
2
48%
06:00
22°
1007.8 hPa   14.8°
3
85%
09:00
21°
1006.6 hPa 1.5 mm 18.8°
4
100%
12:00
21°
1005.5 hPa 3.8 mm 15.1°
4
100%
15:00
20°
1005.0 hPa 4.3 mm 19.6°
3
99% warningclass
18:00
20°
1004.0 hPa 8.8 mm 18.4°
3
85% warningclass
21:00
19°
1003.9 hPa 6.6 mm 18.6°
3
85%
 02:02     19:07    Daglengte: 17:05 Donderdag 29 Jul
00:00
18°
1002.9 hPa 10.1 mm 17.9°
3
74%
03:00
18°
1001.6 hPa 6.8 mm 18.0°
3
95%
06:00
19°
1000.8 hPa 9.9 mm 16.3°
3
98%
09:00
21°
999.5 hPa 10.9 mm 15.0°
4
87%
12:00
21°
998.3 hPa 11.9 mm 11.9°
5
62%
15:00
23°
999.8 hPa 12.4 mm 13.8°
5
0%
18:00
19°
998.9 hPa 12.6 mm 14.9°
4
1%
21:00
17°
997.2 hPa 14.1 mm 15.3°
4
1%
 02:04     19:04    Daglengte: 17:00 Vrijdag 30 Jul
00:00
15°
996.4 hPa 15.7 mm 13.7°
3
1%
03:00
13°
994.8 hPa 16.1 mm 12.6°
2
0%
06:00
15°
993.0 hPa 18.5 mm 13.0°
5
0%
09:00
18°
991.6 hPa 20.2 mm 14.8°
7
1%
12:00
16°
990.7 hPa 21.6 mm 12.6°
3
1%
15:00
16°
988.4 hPa 25.9 mm 13.9°
3
1%
18:00
13°
990.4 hPa 28.5 mm 12.7°
4
1%
21:00
13°
992.0 hPa 29.6 mm 12.3°
4
1%
 02:07     19:02    Daglengte: 16:55 Zaterdag 31 Jul
00:00
12°
993.2 hPa 29.6 mm 10.8°
3
1%
03:00
11°
994.1 hPa 29.6 mm 10.7°
2
0%
06:00
17°
995.2 hPa 29.6 mm 13.7°
3
0%
09:00
22°
996.0 hPa 29.6 mm 12.2°
4
0%
12:00
22°
997.1 hPa 29.7 mm 12.1°
4
0%
15:00
20°
998.6 hPa 29.7 mm 11.9°
4
1%
18:00
16°
999.9 hPa 29.7 mm 12.6°
3
0%
21:00
13°
1000.6 hPa 29.7 mm 12.4°
2
0%
 02:09     18:59    Daglengte: 16:50 Zondag 01 Aug
00:00
13°
1000.4 hPa 29.7 mm 12.4°
2
1%
03:00
14°
999.9 hPa 29.7 mm 13.2°
2
1%
06:00
18°
998.9 hPa 30.1 mm 15.2°
2
1%
09:00
17°
998.3 hPa 31.5 mm 15.2°
4
1%
12:00
18°
996.8 hPa 34.3 mm 16.7°
3
1%
15:00
17°
996.2 hPa 37.0 mm 15.9°
4
1%
18:00
16°
996.6 hPa 38.8 mm 15.0°
6
1%
21:00
15°
998.0 hPa 38.9 mm 14.1°
4
1%
 02:12     18:57    Daglengte: 16:45 Maandag 02 Aug
00:00
15°
998.7 hPa 38.9 mm 14.3°
2
1%
03:00
14°
999.1 hPa 38.9 mm 13.4°
2
1%
06:00
17°
998.8 hPa 39.2 mm 14.4°
2
1%
09:00
21°
998.8 hPa 39.3 mm 12.1°
3
1%
12:00
20°
998.7 hPa 79.3 mm 13.0°
4
1%
18:00
16°
997.8 hPa 81.3 mm 13.5°
2
1%
 02:14     18:54    Daglengte: 16:40 Dinsdag 03 Aug
00:00
12°
996.8 hPa 81.4 mm 10.8°
2
0%
06:00
15°
998.3 hPa 81.6 mm 12.0°
4
0%
12:00
18°
1001.2 hPa 81.9 mm 8.7°
4
1%
18:00
14°
1001.2 hPa 82.8 mm 10.9°
3
1%
 02:16     18:51    Daglengte: 16:35 Woensdag 04 Aug
00:00
10°
Voelt als: 9.0°
1003.1 hPa 84.6 mm 9.4°
2
0%
06:00
15°
1004.7 hPa 84.8 mm 10.9°
4
1%
12:00
20°
1005.2 hPa 86.1 mm 7.9°
6
1%
18:00
15°
1006.0 hPa 86.3 mm 11.9°
3
0%
 02:19     18:49    Daglengte: 16:30 Donderdag 05 Aug
00:00
15°
1003.6 hPa 95.0 mm 15.1°
4
1%
06:00
18°
1001.6 hPa 108.1 mm 16.3°
4
1%
12:00
20°
1008.6 hPa 1.3 mm 11.9°
2
64%
18:00
16°
1008.3 hPa 0.8 mm 12.3°
1
64%
 02:21     18:46    Daglengte: 16:25 Vrijdag 06 Aug
00:00
13°
1008.4 hPa 0.5 mm 11.8°
1
57%
06:00
17°
1008.1 hPa 0.8 mm 13.0°
1
56%
12:00
20°
1008.0 hPa 1.8 mm 13.1°
2
64%
18:00
17°
1007.4 hPa 0.9 mm 13.3°
1
60%
 02:24     18:43    Daglengte: 16:19 Zaterdag 07 Aug
00:00
14°
1007.2 hPa 0.5 mm 12.5°
1
63%
06:00
17°
1006.5 hPa 0.8 mm 13.6°
2
68%
12:00
21°
1006.3 hPa 1.1 mm 13.2°
2
68%
18:00
17°
1006.1 hPa 0.9 mm 13.2°
1
64%
 02:26     18:41    Daglengte: 16:15 Zondag 08 Aug
00:00
14°
1006.2 hPa 0.3 mm 12.2°
1
59%
06:00
17°
1005.8 hPa 0.6 mm 13.2°
2
64%
12:00
21°
1006.3 hPa 1.9 mm 13.2°
1
59%
18:00
17°
1006.6 hPa 1.6 mm 13.2°
1
66%
 02:29     18:38    Daglengte: 16:09 Maandag 09 Aug
00:00
15°
1006.8 hPa 0.7 mm 12.9°
1
62%
06:00
17°
1006.7 hPa 0.8 mm 13.9°
1
71%
12:00
21°
1007.2 hPa 1.6 mm 13.7°
2
72%
18:00
17°
1007.3 hPa 0.8 mm 13.5°
1
77%
 02:31     18:35    Daglengte: 16:04 Dinsdag 10 Aug
00:00
14°
1007.4 hPa 0.4 mm 12.9°
1
71%
06:00
17°
1007.1 hPa 0.7 mm 13.7°
1
66%
12:00
20°
1007.6 hPa 1.9 mm 13.5°
1
71%
  CAPE Lifted Index Hail Supercell Tornado SRH 3km CL BTM PRES CL TOP PRES Swiss DWD icon SMHI TS
 01:55     19:14    Daglengte: 17:19 Vandaag
14:00 136 J/kg -0.6 K 0 % 0 % 0 % 0 m²/s² 0 0 1.98 1
15:00 40 J/kg -0.2 K 0 % 0 % 0 % 0 m²/s² 0 0 2.71 1
16:00 1 J/kg 0.3 K 0 % 0 % 0 % 0 m²/s² 0 0 3.21 1
17:00 0 J/kg 0.9 K 0 % 0 % 0 % 0 m²/s² 0 0 3.9 0
18:00 0 J/kg 1.2 K 0 % 0 % 0 % 0 m²/s² 0 0 4.2 0
19:00 0 J/kg 1.4 K 0 % 0 % 0 % 0 m²/s² 0 0 4.4 0
20:00 0 J/kg 1.3 K 0 % 0 % 0 % 0 m²/s² 0 0 4.45 0
21:00 0 J/kg 0.4 K 0 % 0 % 0 % 0 m²/s² 0 0 3.73 0
22:00 0 J/kg 0.4 K 0 % 0 % 0 % 0 m²/s² 0 0 3.82 1
23:00 0 J/kg 0.6 K 0 % 0 % 0 % 0 m²/s² 0 0 4.02 2
 01:57     19:12    Daglengte: 17:15 Morgen
00:00 0 J/kg 0.6 K 0 % 0 % 0 % 0 m²/s² 0 0 4.02 2
01:00 0 J/kg 0.6 K 0 % 0 % 0 % 0 m²/s² 0 0 3.84 3
02:00 0 J/kg 0.8 K 0 % 0 % 0 % 0 m²/s² 0 0 3.95 2
03:00 0 J/kg 1.2 K 0 % 0 % 0 % 0 m²/s² 0 0 4.44 3
04:00 0 J/kg 1.0 K 0 % 0 % 0 % 0 m²/s² 0 0 4 3
05:00 0 J/kg 1.0 K 0 % 0 % 0 % 0 m²/s² 0 0 4.24 3
06:00 0 J/kg 0.4 K 0 % 0 % 0 % 0 m²/s² 0 0 3.46 3
07:00 3 J/kg 0.1 K 0 % 0 % 0 % 0 m²/s² 0 0 3.91 3
08:00 9 J/kg 0.1 K 0 % 0 % 0 % 0 m²/s² 0 0 4.21 3
09:00 3 J/kg 0.2 K 0 % 0 % 0 % 0 m²/s² 0 0 4.52 3
10:00 7 J/kg 0.0 K 0 % 0 % 0 % 0 m²/s² 0 0 4.68 3
11:00 18 J/kg -0.3 K 0 % 0 % 0 % 0 m²/s² 0 0 4.5 2
12:00 74 J/kg -0.6 K 0 % 0 % 0 % 0 m²/s² 0 0 3.96 2
13:00 79 J/kg -0.7 K 0 % 0 % 0 % 0 m²/s² 0 0 3.44 1
14:00 75 J/kg -0.7 K 0 % 0 % 0 % 0 m²/s² 0 0 3.23 1
15:00 126 J/kg -0.9 K 0 % 0 % 0 % 0 m²/s² 0 0 2.94 1
16:00 96 J/kg -0.8 K 0 % 0 % 0 % 0 m²/s² 0 0 3.43 1
17:00 23 J/kg -0.3 K 0 % 0 % 0 % 0 m²/s² 0 0 4.29 1
18:00 0 J/kg -0.5 K 0 % 0 % 0 % 0 m²/s² 0 0 3.73 1
19:00 0 J/kg -0.5 K 0 % 0 % 0 % 0 m²/s² 0 0 3.85 3
20:00 0 J/kg -0.4 K 0 % 0 % 0 % 0 m²/s² 0 0 3.23 3
21:00 0 J/kg -1.2 K 0 % 0 % 0 % 0 m²/s² 0 0 1.74 0
22:00 0 J/kg -1.2 K 0 % 0 % 0 % 0 m²/s² 0 0 0.66 1
23:00 0 J/kg -1.2 K 0 % 0 % 0 % 0 m²/s² 0 0 -0.54 1
 02:00     19:09    Daglengte: 17:09 Woensdag 28 Jul
00:00 0 J/kg -0.7 K 0 % 0 % 0 % 0 m²/s² 0 0 -0.4 2
01:00 0 J/kg -1.8 K 0 % 0 % 0 % 0 m²/s² 0 0 -1.23 1
02:00 0 J/kg -1.4 K 0 % 0 % 0 % 0 m²/s² 0 0 -0.59 2
03:00 0 J/kg -1.7 K 0 % 0 % 0 % 0 m²/s² 0 0 -0.74 3
04:00 0 J/kg -1.7 K 0 % 0 % 0 % 0 m²/s² 0 0 -0.47 3
05:00 0 J/kg -0.5 K 0 % 0 % 0 % 0 m²/s² 0 0 1.18 3
06:00 114 J/kg -1.5 K 0 % 0 % 0 % 0 m²/s² 0 0 -0.12 3
07:00 180 J/kg -1.7 K 0 % 0 % 0 % 0 m²/s² 0 0 -1.25 3
08:00 194 J/kg -2.6 K 0 % 0 % 0 % 0 m²/s² 0 0 -2.6 61
09:00 282 J/kg -1.4 K 0 % 0 % 0 % 0 m²/s² 0 0 -1.22 61
10:00 777 J/kg -3.0 K 0 % 0 % 0 % 0 m²/s² 0 0 -2.37 80
11:00 653 J/kg -2.8 K 0 % 0 % 0 % 0 m²/s² 0 0 -1.87 95
12:00 502 J/kg -2.3 K 0 % 0 % 0 % 0 m²/s² 0 0 -1.22 80
13:00 424 J/kg -2.0 K 0 % 0 % 0 % 0 m²/s² 0 0 -1.7 80
14:00 1108 J/kg -4.1 K 0 % 0 % 0 % 0 m²/s² 0 0 -3.89 80
15:00 767 J/kg -2.8 K 0 % 0 % 0 % 0 m²/s² 0 0 -2.26 80
16:00 1006 J/kg -3.4 K 0 % 0 % 0 % 0 m²/s² 0 0 -3.19 3
17:00 992 J/kg -3.3 K 0 % 0 % 0 % 0 m²/s² 0 0 -3 3
18:00 768 J/kg -2.9 K 0 % 0 % 0 % 0 m²/s² 0 0 -2.54 3
19:00 612 J/kg -2.4 K 0 % 0 % 0 % 0 m²/s² 0 0 -1.74 3
20:00 550 J/kg -2.5 K 0 % 0 % 0 % 0 m²/s² 0 0 -1.69 2
21:00 629 J/kg -2.9 K 0 % 0 % 0 % 0 m²/s² 0 0 -1.88 2
22:00 608 J/kg -2.7 K 0 % 0 % 0 % 0 m²/s² 0 0 -1.14 3
23:00 560 J/kg -2.4 K 0 % 0 % 0 % 0 m²/s² 0 0 0.12 2
 02:02     19:07    Daglengte: 17:05 Donderdag 29 Jul
00:00 567 J/kg -2.6 K 0 % 0 % 0 % 0 m²/s² 0 0 0.82 2
01:00 574 J/kg -2.4 K 0 % 0 % 0 % 0 m²/s² 0 0 1.41 2
02:00 656 J/kg -2.8 K 0 % 0 % 0 % 0 m²/s² 0 0 1.34 2
03:00 626 J/kg -2.5 K 0 % 0 % 0 % 0 m²/s² 0 0 1.22 3
04:00 785 J/kg -2.7 K 0 % 0 % 0 % 0 m²/s² 0 0 -0.03 3
05:00 1075 J/kg -3.3 K 0 % 0 % 0 % 0 m²/s² 0 0 -1.53 3
06:00 1238 J/kg -4.0 K 0 % 0 % 0 % 0 m²/s² 0 0 -1.48 80
07:00 1341 J/kg -4.0 K 0 % 0 % 0 % 0 m²/s² 0 0 -1.48 80
08:00 1191 J/kg -3.5 K 0 % 0 % 0 % 0 m²/s² 0 0 -1.19 80
09:00 666 J/kg -2.0 K 0 % 0 % 0 % 0 m²/s² 0 0 0.01 3
10:00 620 J/kg -1.8 K 0 % 0 % 0 % 0 m²/s² 0 0 0.48 3
11:00 452 J/kg -1.4 K 0 % 0 % 0 % 0 m²/s² 0 0 0.61 3
Temp Baro Wind Neerslag
  EWN Forecast EWN WRFDA DWD ICON FMI HIRLAM MET Norway GFS
 01:55     19:14    Daglengte: 17:19 Vandaag
15:00 28.4° 1018.9 hPa 2.6 m/s 0.0 mm 27.4° 1018.4 hPa 3.0 m/s 0.0 mm 28.6° 1018.8 hPa 2.7 m/s -2.0 mm 28.8° 1019.0 hPa 2.8 m/s 0.0 mm 28.4° 1018.6 hPa 4.0 m/s
18:00 25.0° 1018.8 hPa 1.7 m/s 0.0 mm 23.4° 1018.0 hPa 1.8 m/s 0.0 mm 25.2° 1018.3 hPa 1.2 m/s 0.0 mm 24.8° 1019.1 hPa 1.7 m/s 0.0 mm 22.6° 1018.6 hPa 1.7 m/s
21:00 19.0° 1019.3 hPa 1.0 m/s 0.0 mm 16.6° 1018.6 hPa 2.5 m/s 0.0 mm 19.3° 1019.2 hPa 0.6 m/s 0.0 mm 18.0° 1019.4 hPa 1.0 m/s 0.0 mm 17.9° 1019.0 hPa 1.0 m/s
 01:57     19:12    Daglengte: 17:15 Morgen
00:00 16.6° 1019.0 hPa 1.8 m/s 0.0 mm 16.6° 1018.1 hPa 2.9 m/s 0.0 mm 16.4° 1018.5 hPa 1.6 m/s 0.0 mm 15.8° 1019.4 hPa 1.4 m/s 0.0 mm 17.3° 1019.1 hPa 1.9 m/s
03:00 17.0° 1018.3 hPa 1.8 m/s 0.0 mm 17.7° 1017.2 hPa 3.5 m/s 0.0 mm 17.0° 1018.0 hPa 1.3 m/s 0.0 mm 15.0° 1018.9 hPa 1.6 m/s 0.0 mm 17.6° 1018.3 hPa 2.2 m/s
06:00 22.8° 1017.7 hPa 2.2 m/s 0.0 mm 23.3° 1017.3 hPa 3.3 m/s 0.0 mm 23.1° 1017.5 hPa 2.1 m/s 0.0 mm 22.7° 1018.2 hPa 1.9 m/s 0.0 mm 23.6° 1017.4 hPa 3.0 m/s
09:00 28.0° 1016.9 hPa 3.7 m/s 0.0 mm 26.9° 1016.1 hPa 5.1 m/s 0.0 mm 28.2° 1016.5 hPa 3.6 m/s 0.0 mm 28.5° 1017.2 hPa 3.5 m/s 0.0 mm 28.4° 1016.5 hPa 3.4 m/s
12:00 30.0° 1015.4 hPa 4.0 m/s 0.0 mm 28.2° 1014.8 hPa 5.1 m/s 0.0 mm 30.3° 1014.7 hPa 3.9 m/s 0.0 mm 30.4° 1015.9 hPa 3.5 m/s 0.0 mm 30.0° 1015.0 hPa 4.0 m/s
15:00 29.2° 1014.0 hPa 4.1 m/s 0.0 mm 27.5° 1013.4 hPa 5.5 m/s 0.0 mm 30.1° 1013.3 hPa 3.9 m/s 0.0 mm 29.5° 1014.4 hPa 3.7 m/s 0.0 mm 29.5° 1013.8 hPa 3.9 m/s
18:00 25.5° 1013.0 hPa 2.9 m/s 0.0 mm 23.9° 1012.0 hPa 3.8 m/s 0.0 mm 26.8° 1012.4 hPa 2.9 m/s 0.0 mm 25.0° 1013.5 hPa 1.7 m/s 0.0 mm 25.1° 1012.9 hPa 3.6 m/s
21:00 21.7° 1012.3 hPa 2.7 m/s 0.0 mm 20.8° 1011.0 hPa 4.9 m/s 0.0 mm 22.4° 1011.8 hPa 2.6 m/s 0.0 mm 17.5° 1012.8 hPa 1.4 m/s 0.0 mm 20.1° 1012.9 hPa 2.6 m/s
 02:00     19:09    Daglengte: 17:09 Woensdag 28 Jul
00:00 19.7° 1010.5 hPa 2.2 m/s 0.0 mm 20.5° 1009.2 hPa 4.7 m/s 0.0 mm 20.2° 1010.3 hPa 2.5 m/s 0.0 mm 16.3° 1011.4 hPa 1.7 m/s 0.0 mm 16.9° 1011.6 hPa 2.0 m/s
03:00 18.6° 1009.1 hPa 2.4 m/s 0.0 mm 19.7° 1007.6 hPa 4.9 m/s 0.0 mm 18.8° 1009.1 hPa 2.1 m/s 0.0 mm 16.6° 1010.1 hPa 2.7 m/s 0.0 mm 18.3° 1010.0 hPa 3.7 m/s
06:00 21.7° 1007.8 hPa 2.6 m/s 0.0 mm 23.6° 1006.2 hPa 5.7 m/s 0.0 mm 21.8° 1007.7 hPa 3.2 m/s 0.0 mm 22.0° 1008.9 hPa 2.2 m/s 0.0 mm 18.1° 1008.3 hPa 4.4 m/s
09:00 20.5° 1006.6 hPa 3.8 m/s 1.5 mm 20.8° 1006.0 hPa 5.5 m/s 3.5 mm 20.5° 1006.9 hPa 3.7 m/s 1.7 mm 18.1° 1006.9 hPa 5.6 m/s
12:00 20.6° 1005.5 hPa 3.8 m/s 3.8 mm 23.9° 1004.5 hPa 5.4 m/s 9.9 mm 20.2° 1006.1 hPa 3.9 m/s 2.4 mm 18.9° 1006.5 hPa 4.3 m/s
15:00 20.3° 1005.0 hPa 3.2 m/s 4.3 mm 20.8° 1004.1 hPa 3.8 m/s 14.6 mm 20.5° 1005.2 hPa 3.5 m/s 1.5 mm 19.5° 1005.5 hPa 2.0 m/s
18:00 20.1° 1004.0 hPa 3.0 m/s 8.8 mm 21.1° 1003.6 hPa 2.9 m/s 24.4 mm 20.2° 1004.4 hPa 3.3 m/s 0.2 mm 19.6° 1004.6 hPa 2.1 m/s
21:00 18.7° 1003.9 hPa 3.1 m/s 6.6 mm 19.3° 1003.3 hPa 3.0 m/s 27.0 mm 18.7° 1004.1 hPa 2.7 m/s 0.0 mm 17.0° 1004.4 hPa 1.9 m/s
 02:02     19:07    Daglengte: 17:05 Donderdag 29 Jul
00:00 18.1° 1002.9 hPa 3.2 m/s 10.1 mm 18.2° 1002.6 hPa 3.3 m/s 28.4 mm 17.5° 1002.9 hPa 2.3 m/s 0.0 mm 16.6° 1003.0 hPa 2.0 m/s
03:00 18.0° 1001.6 hPa 2.9 m/s 6.8 mm 18.5° 1001.1 hPa 3.3 m/s 28.5 mm 17.9° 1001.6 hPa 2.1 m/s 0.0 mm 16.7° 1002.0 hPa 1.9 m/s
06:00 19.1° 1000.8 hPa 3.4 m/s 9.9 mm 21.4° 1001.0 hPa 3.4 m/s 28.5 mm 18.9° 1000.2 hPa 4.0 m/s 0.3 mm 19.7° 1000.8 hPa 3.2 m/s
09:00 20.8° 999.5 hPa 4.4 m/s 10.9 mm 22.6° 1001.1 hPa 4.3 m/s 31.7 mm 20.4° 999.1 hPa 4.4 m/s 0.5 mm 22.6° 1000.7 hPa 4.1 m/s
12:00 20.9° 998.3 hPa 4.8 m/s 11.9 mm 24.3° 1001.1 hPa 5.9 m/s 34.6 mm 20.1° 997.6 hPa 4.6 m/s 0.5 mm 24.6° 1000.7 hPa 5.5 m/s
15:00 22.6° 999.8 hPa 5.4 m/s 12.4 mm 22.6° 999.8 hPa 5.4 m/s 12.4 mm
18:00 18.6° 998.9 hPa 4.3 m/s 12.6 mm 18.6° 998.9 hPa 4.3 m/s 12.6 mm
21:00 16.6° 997.2 hPa 4.5 m/s 14.1 mm 16.6° 997.2 hPa 4.5 m/s 14.1 mm
 02:04     19:04    Daglengte: 17:00 Vrijdag 30 Jul
00:00 14.5° 996.4 hPa 3.0 m/s 15.7 mm 14.5° 996.4 hPa 3.0 m/s 15.7 mm
03:00 13.2° 994.8 hPa 2.3 m/s 16.1 mm 13.2° 994.8 hPa 2.3 m/s 16.1 mm
06:00 14.6° 993.0 hPa 4.8 m/s 18.5 mm 14.6° 993.0 hPa 4.8 m/s 18.5 mm
09:00 17.6° 991.6 hPa 6.6 m/s 20.2 mm 17.6° 991.6 hPa 6.6 m/s 20.2 mm
12:00 16.2° 990.7 hPa 3.1 m/s 21.6 mm 16.2° 990.7 hPa 3.1 m/s 21.6 mm
15:00 15.9° 988.4 hPa 2.5 m/s 25.9 mm 15.9° 988.4 hPa 2.5 m/s 25.9 mm
18:00 13.2° 990.4 hPa 4.1 m/s 28.5 mm 13.2° 990.4 hPa 4.1 m/s 28.5 mm
21:00 13.3° 992.0 hPa 4.1 m/s 29.6 mm 13.3° 992.0 hPa 4.1 m/s 29.6 mm
 02:07     19:02    Daglengte: 16:55 Zaterdag 31 Jul
00:00 11.6° 993.2 hPa 2.8 m/s 29.6 mm 11.6° 993.2 hPa 2.8 m/s 29.6 mm
03:00 11.3° 994.1 hPa 1.9 m/s 29.6 mm 11.3° 994.1 hPa 1.9 m/s 29.6 mm
06:00 16.7° 995.2 hPa 2.7 m/s 29.6 mm 16.7° 995.2 hPa 2.7 m/s 29.6 mm
09:00 21.6° 996.0 hPa 3.5 m/s 29.6 mm 21.6° 996.0 hPa 3.5 m/s 29.6 mm
12:00 21.8° 997.1 hPa 4.3 m/s 29.7 mm 21.8° 997.1 hPa 4.3 m/s 29.7 mm
15:00 20.4° 998.6 hPa 4.3 m/s 29.7 mm 20.4° 998.6 hPa 4.3 m/s 29.7 mm
18:00 16.2° 999.9 hPa 3.5 m/s 29.7 mm 16.2° 999.9 hPa 3.5 m/s 29.7 mm
21:00 13.2° 1000.6 hPa 1.7 m/s 29.7 mm 13.2° 1000.6 hPa 1.7 m/s 29.7 mm
 02:09     18:59    Daglengte: 16:50 Zondag 01 Aug
00:00 13.0° 1000.4 hPa 1.8 m/s 29.7 mm 13.0° 1000.4 hPa 1.8 m/s 29.7 mm
03:00 13.9° 999.9 hPa 1.8 m/s 29.7 mm 13.9° 999.9 hPa 1.8 m/s 29.7 mm
06:00 17.9° 998.9 hPa 2.2 m/s 30.1 mm 17.9° 998.9 hPa 2.2 m/s 30.1 mm
09:00 16.9° 998.3 hPa 3.7 m/s 31.5 mm 16.9° 998.3 hPa 3.7 m/s 31.5 mm
12:00 18.4° 996.8 hPa 3.0 m/s 34.3 mm 18.4° 996.8 hPa 3.0 m/s 34.3 mm
15:00 17.2° 996.2 hPa 3.9 m/s 37.0 mm 17.2° 996.2 hPa 3.9 m/s 37.0 mm
18:00 16.1° 996.6 hPa 5.9 m/s 38.8 mm 16.1° 996.6 hPa 5.9 m/s 38.8 mm
21:00 15.3° 998.0 hPa 3.8 m/s 38.9 mm 15.3° 998.0 hPa 3.8 m/s 38.9 mm
 02:12     18:57    Daglengte: 16:45 Maandag 02 Aug
00:00 15.0° 998.7 hPa 2.1 m/s 38.9 mm 15.0° 998.7 hPa 2.1 m/s 38.9 mm
03:00 14.0° 999.1 hPa 2.1 m/s 38.9 mm 14.0° 999.1 hPa 2.1 m/s 38.9 mm
06:00 17.5° 998.8 hPa 2.2 m/s 39.2 mm 17.5° 998.8 hPa 2.2 m/s 39.2 mm
09:00 20.5° 998.8 hPa 3.4 m/s 39.3 mm 20.5° 998.8 hPa 3.4 m/s 39.3 mm
12:00 20.2° 998.7 hPa 4.1 m/s 39.9 mm 20.2° 998.7 hPa 4.1 m/s 39.9 mm
18:00 16.0° 997.8 hPa 2.3 m/s 40.7 mm 16.0° 997.8 hPa 2.3 m/s 40.7 mm
 02:14     18:54    Daglengte: 16:40 Dinsdag 03 Aug
00:00 12.1° 996.8 hPa 1.7 m/s 40.7 mm 12.1° 996.8 hPa 1.7 m/s 40.7 mm
06:00 15.2° 998.3 hPa 4.1 m/s 40.8 mm 15.2° 998.3 hPa 4.1 m/s 40.8 mm
12:00 18.2° 1001.2 hPa 4.2 m/s 41.0 mm 18.2° 1001.2 hPa 4.2 m/s 41.0 mm
18:00 13.7° 1001.2 hPa 2.7 m/s 41.7 mm 13.7° 1001.2 hPa 2.7 m/s 41.7 mm
 02:16     18:51    Daglengte: 16:35 Woensdag 04 Aug
00:00 9.8° 1003.1 hPa 2.0 m/s 42.3 mm 9.8° 1003.1 hPa 2.0 m/s 42.3 mm
06:00 15.2° 1004.7 hPa 3.5 m/s 42.5 mm 15.2° 1004.7 hPa 3.5 m/s 42.5 mm
12:00 19.9° 1005.2 hPa 5.8 m/s 43.1 mm 19.9° 1005.2 hPa 5.8 m/s 43.1 mm
18:00 15.5° 1006.0 hPa 2.5 m/s 43.2 mm 15.5° 1006.0 hPa 2.5 m/s 43.2 mm
 02:19     18:49    Daglengte: 16:30 Donderdag 05 Aug
00:00 15.5° 1003.6 hPa 3.8 m/s 50.3 mm 15.5° 1003.6 hPa 3.8 m/s 50.3 mm
06:00 17.6° 1001.6 hPa 4.3 m/s 54.9 mm 17.6° 1001.6 hPa 4.3 m/s 54.9 mm
12:00 19.8° 1008.6 hPa 1.6 m/s 1.3 mm
18:00 16.2° 1008.3 hPa 0.9 m/s 0.8 mm
 02:21     18:46    Daglengte: 16:25 Vrijdag 06 Aug
00:00 13.4° 1008.4 hPa 1.1 m/s 0.5 mm
06:00 16.8° 1008.1 hPa 1.3 m/s 0.8 mm
12:00 20.0° 1008.0 hPa 1.6 m/s 1.8 mm
18:00 16.9° 1007.4 hPa 0.8 m/s 0.9 mm
 02:24     18:43    Daglengte: 16:19 Zaterdag 07 Aug
00:00 14.3° 1007.2 hPa 1.1 m/s 0.5 mm
06:00 17.2° 1006.5 hPa 1.8 m/s 0.8 mm
12:00 21.2° 1006.3 hPa 1.8 m/s 1.1 mm
18:00 17.4° 1006.1 hPa 1.0 m/s 0.9 mm
 02:26     18:41    Daglengte: 16:15 Zondag 08 Aug
00:00 14.5° 1006.2 hPa 1.3 m/s 0.3 mm
06:00 17.4° 1005.8 hPa 1.8 m/s 0.6 mm
12:00 20.9° 1006.3 hPa 1.5 m/s 1.9 mm
18:00 17.2° 1006.6 hPa 0.6 m/s 1.6 mm
 02:29     18:38    Daglengte: 16:09 Maandag 09 Aug
00:00 14.6° 1006.8 hPa 1.1 m/s 0.7 mm
06:00 17.3° 1006.7 hPa 1.3 m/s 0.8 mm
12:00 20.6° 1007.2 hPa 1.6 m/s 1.6 mm
18:00 16.9° 1007.3 hPa 0.8 m/s 0.8 mm
 02:31     18:35    Daglengte: 16:04 Dinsdag 10 Aug
00:00 14.3° 1007.4 hPa 0.7 m/s 0.4 mm
06:00 17.0° 1007.1 hPa 0.8 m/s 0.7 mm
12:00 19.7° 1007.6 hPa 1.4 m/s 1.9 mm
FMI Hirlam - 7.5 km EWN WRFDA - 12 km DWD ICON - 7 km GFS - 25 km Basiskaart






























































Updatetijd (Europe/Amsterdam) Resolutie Lengte Stap
FMI Hirlam 14:00, 20:00, 02:00, 08:00 7.5 km 49h 1h
EWN WRFDA 10:30, 16:30, 22:30, 04:30 12 km 73h 1h
DWD ICON 11:45, 17:45, 23:45, 05:45 7 km 75h 1h
GFS 14:15, 20:15, 02:15, 08:15 25 km 237h 3h
30+ mm
25-30 mm
20-25 mm
15-20 mm
10-15 mm
6-10 mm
4-6 mm
2-4 mm
1-2 mm
0.5-1 mm
0.2-0.5 mm
0.1-0.2 mm
30+ mm
25-30 mm
20-25 mm
15-20 mm
10-15 mm
6-10 mm
4-6 mm
2-4 mm
1-2 mm
0.5-1 mm
0.2-0.5 mm
0.1-0.2 mm
Sneeuwval
Natte sneeuw
Hagel
Vorst
30+ mm
25-30 mm
20-25 mm
15-20 mm
10-15 mm
6-10 mm
4-6 mm
2-4 mm
1-2 mm
0.5-1 mm
0.2-0.5 mm
0.1-0.2 mm
Sneeuwval
Natte sneeuw
Hagel
Vorst
Onweer
50 mm
40 mm
30 mm
26 mm
22 mm
18 mm
14 mm
10 mm
9 mm
8 mm
7 mm
6 mm
5 mm
4.5 mm
4 mm
3.5 mm
3 mm
2.5 mm
2 mm
1.5 mm
1 mm
0.8 mm
0.6 mm
0.4 mm
0.2 mm
0.05 mm
<
35°
30°
25°
20°
15°